Location: Karaa?a�
(36.7158°N, 30.4165°E)
Time: 10:19:03
(UTC+00:00)

OAO 1 - Visible Passes

Search period start: 03 August 2020 00:00
Search period end: 13 August 2020 00:00
Orbit: 774 x 783 km, 35.0° (Epoch: 02 August)

Date Brightness Start Highest point End Pass type
(mag) Time Alt. Az. Time Alt. Az. Time Alt. Az.
03 Aug 4.5 18:49:04 10° W 18:54:28 64° SSW 18:56:13 42° SE visible
03 Aug 6.8 20:35:45 10° W 20:36:34 14° W 20:36:34 14° W visible
04 Aug 4.6 18:12:14 10° W 18:17:40 67° S 18:21:11 22° ESE visible
04 Aug 6.1 19:58:50 10° W 20:01:32 24° WSW 20:01:32 24° WSW visible
05 Aug 4.6 17:35:25 10° W 17:40:52 70° S 17:46:10 11° ESE visible
05 Aug 5.3 19:21:57 10° W 19:26:32 36° SSW 19:26:32 36° SSW visible
06 Aug 5.2 18:45:05 10° W 18:50:09 40° SSW 18:51:33 34° SSE visible
07 Aug 5.1 18:08:13 10° W 18:13:23 44° SSW 18:16:35 21° SE visible
07 Aug 6.8 19:55:59 10° WSW 19:56:57 12° WSW 19:56:57 12° WSW visible
08 Aug 5.1 17:31:22 10° W 17:36:37 48° SSW 17:41:40 11° SE visible
08 Aug 6.4 19:18:48 10° WSW 19:22:02 17° SW 19:22:02 17° SW visible
09 Aug 6.2 18:41:43 10° WSW 18:45:36 20° SSW 18:47:09 18° S visible
10 Aug 6.1 18:04:41 10° W 18:08:52 23° SSW 18:12:20 13° SSE visible
11 Aug 6.1 17:27:41 10° W 17:32:08 25° SSW 17:36:33 10° SSE visible
